ENRA Weather Reports


time (UTC)temp
F
wind
direction
speed
knots
gust
knots
rain 1hr
in
rain 24hr
in
rain mn
in
humidity
%
barometer
mb
20260503070308 33 240 7.8 0.0 0.00 0.00 0.00 86 1008.0
20260503060307 33 0 1.7 0.0 0.00 0.00 0.00 80 1008.0
20260503053306 33 0 0.0 0.0 0.00 0.00 0.00 80 1008.0
20260503050307 32 210 5.2 0.0 0.00 0.00 0.00 86 1008.0
20260503043309 32 250 7.8 0.0 0.00 0.00 0.00 86 1008.0
20260503040306 32 90 2.6 0.0 0.00 0.00 0.00 86 1008.0
20260503033307 32 200 1.7 0.0 0.00 0.00 0.00 92 1008.0
20260503030307 32 280 5.2 0.0 0.00 0.00 0.00 86 1008.0
20260503023306 32 310 5.2 0.0 0.00 0.00 0.00 86 1008.0
20260503020307 32 60 0.9 0.0 0.00 0.00 0.00 86 1007.0
20260503013308 33 300 8.7 0.0 0.00 0.00 0.00 80 1007.0
20260503010309 32 300 6.1 0.0 0.00 0.00 0.00 92 1007.0
20260503003309 33 280 8.7 0.0 0.00 0.00 0.00 86 1007.0
20260503000306 33 280 5.2 0.0 0.00 0.00 0.00 93 1007.0
20260502233310 33 270 5.2 0.0 0.00 0.00 0.00 93 1007.0
20260502230307 33 330 4.3 0.0 0.00 0.00 0.00 93 1007.0
20260502223307 33 0 1.7 0.0 0.00 0.00 0.00 93 1007.0
20260502220307 33 140 2.6 0.0 0.00 0.00 0.00 93 1007.0
20260502213308 33 310 2.6 0.0 0.00 0.00 0.00 93 1007.0
20260502210306 35 0 0.0 0.0 0.00 0.00 0.00 86 1006.0
20260502203306 35 250 7.0 0.0 0.00 0.00 0.00 86 1006.0
20260502200307 35 240 4.3 0.0 0.00 0.00 0.00 86 1006.0
20260502193309 35 260 4.3 0.0 0.00 0.00 0.00 93 1006.0
20260502190307 35 250 10.4 0.0 0.00 0.00 0.00 86 1006.0
20260502183306 35 240 8.7 0.0 0.00 0.00 0.00 86 1006.0
20260502180308 37 240 6.1 0.0 0.00 0.00 0.00 80 1006.0
20260502170308 37 270 7.0 0.0 0.00 0.00 0.00 80 1006.0
20260502163308 37 240 7.0 0.0 0.00 0.00 0.00 86 1006.0
20260502160309 39 240 7.0 0.0 0.00 0.00 0.00 80 1006.0
20260502150309 37 250 8.7 20.0 0.00 0.00 0.00 86 1006.0
20260502130309 37 250 13.0 22.6 0.00 0.00 0.00 86 1006.0
20260502123308 39 240 13.9 26.1 0.00 0.00 0.00 80 1006.0
20260502120309 39 300 7.0 0.0 0.00 0.00 0.00 80 1006.0
20260502113310 39 290 11.3 0.0 0.00 0.00 0.00 80 1005.0
20260502110309 42 270 11.3 0.0 0.00 0.00 0.00 60 1005.0
20260502103308 42 260 14.8 26.1 0.00 0.00 0.00 60 1005.0
20260502100308 42 260 14.8 26.1 0.00 0.00 0.00 60 1005.0
20260502090308 41 280 7.8 0.0 0.00 0.00 0.00 70 1005.0